Regional Weather Roundup
Issued by NWS

Home | Current Version | Previous Version | Text Only | Print | Product List | Glossary On
Versions: 1 2 3 4 5 6 7 8 9 10 11 12 13 14 15 16 17 18 19 20 21 22 23 24 25 26 27 28 29 30 31 32 33 34 35 36 37 38 39 40 41 42 43 44 45 46 47 48 49 50
000
ASUS45 KPSR 181710
RWRAZ

ARIZONA REGIONAL HOURLY WEATHER ROUNDUP
NATIONAL WEATHER SERVICE PHOENIX AZ
1000 AM MST THU DEC 18 2014

NOTE: FAIR INDICATES FEW OR NO CLOUDS BELOW 12,000 FEET WITH NO
SIGNIFICANT WEATHER AND/OR OBSTRUCTIONS TO VISIBILITY.

AZZ001>003-036-181800-
NORTHWEST ARIZONA

CITY           SKY/WX    TMP DP  RH WIND       PRES   REMARKS
BULLHEAD CITY  CLOUDY    54  48  82 CALM      30.21R
KINGMAN        CLOUDY    43  39  86 NW3       30.17R
$$

AZZ004>008-015-016-018-181800-
NORTH CENTRAL ARIZONA

CITY           SKY/WX    TMP DP  RH WIND       PRES   REMARKS
GRAND CANYON   CLOUDY    32  30  92 CALM      30.16R
PRESCOTT       CLOUDY    37  32  82 CALM      30.16R
FLAGSTAFF      LGT SNOW  29  27  92 CALM      30.13R VSB 3/4
PAYSON         CLOUDY    36  34  93 CALM      30.17R
PAGE           CLOUDY    40  35  83 CALM      30.17R
$$

AZZ009>014-017-181800-
NORTHEAST ARIZONA

CITY           SKY/WX    TMP DP  RH WIND       PRES   REMARKS
WINSLOW        CLOUDY    34  31  88 E5        30.16R WCI  30
SAINT JOHNS    CLOUDY    36  28  73 CALM      30.13S
WINDOW ROCK    CLOUDY    32  28  85 CALM      30.15R
SHOW LOW       FLURRIES  32  28  86 CALM      30.15S
$$

AZZ023-181800-
GREATER PHOENIX AREA

CITY           SKY/WX    TMP DP  RH WIND       PRES   REMARKS
PHOENIX        CLOUDY    53  48  83 SW5       30.14R
BUCKEYE          N/A     52  52 100 NW7       30.17R
GLENDALE       CLOUDY    54  45  71 NW5       30.17R
LUKE AFB       PTSUNNY   52  48  86 N5        30.15R
DEER VALLEY    CLOUDY    52  45  77 N3        30.14R
SCOTTSDALE     CLOUDY    53  45  74 CALM      30.15R
MESA-GATEWAY   CLOUDY    52  48  87 NW3       30.16R
CHANDLER       PTSUNNY   52  48  87 NW5       30.15R
$$

AZZ027-028-181800-
SOUTHWEST MARICOPA COUNTY AND PINAL COUNTY

CITY           SKY/WX    TMP DP  RH WIND       PRES   REMARKS
CASA GRANDE    CLOUDY    50  46  87 CALM      30.15R
GILA BEND      MOSUNNY   52  48  87 NE3       30.17R
$$

AZZ503-504-507>509-181800-
SOUTHEAST ARIZONA

CITY           SKY/WX    TMP DP  RH WIND       PRES   REMARKS
TUCSON         CLOUDY    53  47  79 SW3       30.14R
DAVIS-MONTHAN  MOSUNNY   51  49  91 SW2       30.12R
RYAN FIELD       N/A     54  54 100 SW5       30.15R
NOGALES        CLOUDY    49  45  86 S7        30.13R
SIERRA VISTA   CLOUDY    46  43  87 CALM      30.15R
DOUGLAS        CLOUDY    46  42  86 S6        30.16R
SAFFORD        CLOUDY    46  43  89 SE6       30.14S
$$

AZZ020-021-025-026-031-181800-
SOUTHWEST ARIZONA

CITY           SKY/WX    TMP DP  RH WIND       PRES   REMARKS
YUMA           MOSUNNY  N/A N/A N/A CALM      30.16R
$$

CAZ031-033-041-043-047-048-061-181800-
SOUTHERN CALIFORNIA

CITY           SKY/WX    TMP DP  RH WIND       PRES   REMARKS
DOWNTOWN L.A.  CLOUDY    56  42  59 E5        30.19R
L.A. AIRPORT   PTSUNNY   54  45  71 E6        30.19R
SAN DIEGO      PTSUNNY   59  45  59 SE6       30.21R
BURBANK        CLOUDY    51  43  74 CALM      30.18R
ONTARIO        MOSUNNY   54  42  64 SE5       30.19R
RIVERSIDE      SUNNY     52  43  71 NE3       30.20R
PALM SPRINGS   SUNNY     56  41  57 CALM      30.19R
EL CENTRO NAS  MOSUNNY   57  48  72 CALM      30.17R
IMPERIAL       SUNNY     57  48  72 N3        30.16R
BLYTHE         MOSUNNY   54  51  90 CALM      30.18R
NEEDLES        SUNNY     54  45  71 NE5       30.19R
$$

NVZ020-UTZ003-181800-
SOUTHERN NEVADA-UTAH

CITY           SKY/WX    TMP DP  RH WIND       PRES   REMARKS
LAS VEGAS      PTSUNNY   49  41  74 S6        30.15R
SALT LAKE CITY PTSUNNY   36  32  85 S5        30.16R WCI  32
$$

NMZ009-TXZ055-181800-
NEW MEXICO-WEST TEXAS

CITY           SKY/WX    TMP DP  RH WIND       PRES   REMARKS
ALBUQUERQUE    PTSUNNY   36  31  82 S5        30.17S WCI  32
EL PASO        PTSUNNY   46  35  65 S5        30.16R
$$


........................KEY........................
SKY/WX - SKY CONDITION/WEATHER
TMP    - TEMPERATURE IN FAHRENHEIT
DP     - DEW POINT IN FAHRENHEIT
RH     - RELATIVE HUMIDITY IN PERCENT
WIND   - DIRECTION AND SPEED IN MILES PER HOUR (MPH)
VRB    - VARIABLE WIND DIRECTION
PRES   - MEAN SEA LEVEL PRESSURE IN INCHES OF MERCURY
         F - FALLING PRESSURE   R - RISING PRESSURE
         S - STEADY PRESSURE
VSB    - VISIBILITY IN MILES
HX     - HEAT INDEX IN FAHRENHEIT
WCI    - WIND CHILL INDEX IN FAHRENHEIT
TC     - TEMPERATURE IN CELSIUS WHICH IS ALSO KNOWN AS
         TEMPERATURE IN CENTIGRADE
AFB    - AIR FORCE BASE
         LUKE AFB IS LUKE AIR FORCE BASE
         DAVIS-MONTHAN IS DAVIS-MONTHAN AIR FORCE BASE
NAS    - NAVAL AIR STATION
         EL CENTRO NAS IS EL CENTRO NAVAL AIR STATION
N/A    - NOT AVAILABLE



USA.gov is the U.S. government's official web portal to all federal, state and local government web resources and services.